Wind_Speed
49 48 47 46 45 45 44 44 45 46 47 48 47 47 47 47 47 46 45 44 43 43 44 45 45 46 47 47 47 48 48 49 50 52 52 53 52 52 52 52 51 51
51 50 50 49 48 47 46 46 47 48 49 50 50 50 50 49 49 48 46 45 45 46 46 47 47 47 48 48 48 49 50 51 52 53 54 54 54 54 54 53 53 53
54 54 53 53 52 50 49 49 50 51 51 52 52 51 51 51 50 49 48 47 47 48 49 49 49 49 49 49 49 50 51 52 53 54 55 55 55 55 55 55 55 54
57 57 56 56 55 55 54 53 52 53 53 53 53 52 52 52 52 51 50 50 50 50 51 51 52 51 51 51 52 52 53 53 53 54 54 55 55 56 56 57 56 57
58 59 59 59 59 59 58 57 56 55 55 54 54 53 53 52 52 53 53 52 52 53 54 54 54 53 53 54 54 54 54 54 53 53 54 54 55 57 57 58 58 58
62 61 61 62 62 63 63 61 59 58 57 56 55 54 53 53 54 54 54 54 55 55 56 56 56 55 56 56 56 55 55 54 54 54 54 54 56 57 58 59 59 59
68 66 65 65 65 65 65 64 62 60 58 56 56 56 55 55 55 56 56 57 57 58 59 59 59 58 58 58 57 56 55 55 54 54 54 55 56 58 59 61 61 61
69 69 69 68 67 66 65 64 63 61 59 58 58 58 57 57 58 59 59 60 60 60 61 61 61 61 61 60 58 57 56 56 56 56 55 56 56 57 60 62 63 64
65 68 70 70 69 67 65 63 61 60 60 60 61 61 61 61 60 61 62 62 63 62 62 62 62 62 62 61 60 59 58 58 58 58 58 58 58 58 60 62 64 65
62 65 70 72 72 70 67 64 62 61 61 62 63 63 63 63 63 63 64 64 64 63 63 63 63 64 64 63 62 61 61 61 61 61 60 60 60 61 61 63 65 67
60 63 69 72 74 73 71 68 66 64 64 65 65 65 65 65 65 66 66 66 66 65 65 65 65 65 66 66 64 64 63 63 62 62 62 62 62 62 63 65 67 68
62 63 66 70 73 74 75 73 70 67 67 68 68 68 67 66 66 65 65 65 65 65 64 64 64 65 66 66 65 65 65 64 63 63 63 64 64 65 65 66 68 69
67 67 67 68 70 73 75 75 73 71 70 71 72 71 68 66 64 62 60 59 60 60 60 61 62 64 66 66 67 67 66 65 64 64 65 65 66 67 67 68 69 70
72 73 73 72 72 73 74 75 74 73 72 72 73 72 69 65 61 59 58 58 59 61 62 62 64 65 67 68 69 69 68 66 66 66 66 67 68 69 70 70 70 71
77 77 77 76 75 74 73 73 74 74 74 73 72 70 67 64 61 59 60 61 62 64 66 66 65 66 67 69 70 70 69 68 68 68 68 69 70 71 72 72 72 72
83 82 81 79 77 75 74 75 75 76 76 75 74 71 68 64 63 62 63 65 66 67 69 68 67 67 68 69 70 70 71 71 70 70 71 71 72 73 73 74 74 74
83 82 82 81 79 76 74 75 77 78 78 77 76 74 71 68 68 69 70 70 70 70 71 70 69 69 69 70 71 71 72 72 72 72 73 73 74 74 75 75 76 76
80 79 79 80 80 78 76 77 79 79 79 78 77 77 77 77 79 79 77 74 73 74 74 72 70 70 70 71 72 73 74 74 74 74 74 75 75 75 75 76 76 76
78 77 77 78 78 78 77 78 79 80 80 80 81 82 84 84 84 83 80 77 76 78 77 74 73 73 74 75 75 75 76 76 75 75 75 75 75 75 75 75 74 73
79 78 78 78 78 79 79 80 81 82 82 82 82 83 83 81 80 80 79 78 78 79 79 77 76 76 77 77 77 77 77 76 76 75 75 75 75 74 72 70 69 68
78 78 78 78 78 78 79 79 80 80 80 80 79 79 78 78 79 79 79 78 78 79 79 79 79 80 80 79 80 79 79 78 77 77 77 77 76 73 70 67 66 66
79 78 78 78 78 78 78 78 79 79 79 80 80 80 81 82 82 80 78 78 79 80 81 81 82 82 82 81 81 81 80 80 79 79 77 75 73 69 67 66 66 65
87 84 82 81 81 81 81 80 81 81 82 84 86 87 87 86 84 80 77 78 81 83 84 84 85 84 84 84 82 81 81 80 78 75 72 68 66 64 63 64 65 65
91 90 89 89 89 90 89 86 84 85 86 88 88 87 86 84 84 81 78 78 80 84 86 86 85 85 86 85 82 81 81 78 72 68 66 64 63 63 63 65 66 66
96 96 95 92 90 90 89 86 83 82 83 83 82 81 80 81 82 82 81 81 83 85 87 88 87 88 88 85 82 82 80 76 71 68 65 63 62 62 63 64 65 66
96 94 89 81 76 74 74 74 74 74 74 75 75 75 76 77 78 79 81 85 87 87 86 87 87 86 85 81 79 77 75 72 69 68 65 64 64 65 65 66 68 68
Wind_Direction
263 263 263 263 264 265 266 266 265 264 263 262 261 261 260 259 259 259 260 261 263 265 266 267 269 270 272 274 276 279 281 283 284 284 285 285 284 284 283 283 282 281
261 260 261 262 263 264 264 264 263 262 261 262 262 262 262 261 261 261 261 263 264 266 266 267 268 270 272 274 277 280 282 284 285 285 285 285 285 284 283 283 282 281
264 262 261 262 263 264 264 264 264 262 262 262 263 263 262 262 261 261 262 263 264 265 266 267 268 269 272 274 277 278 280 282 283 284 284 285 284 284 283 283 282 281
268 267 266 265 265 266 266 267 266 263 262 262 262 262 262 261 261 261 262 262 264 265 266 267 268 270 272 274 275 277 278 280 280 281 283 283 283 283 282 282 282 281
267 267 268 268 268 268 268 269 267 265 263 263 262 262 262 262 262 262 262 263 264 265 266 268 269 271 272 273 274 276 278 280 280 281 282 282 282 282 281 281 281 280
265 266 266 267 268 268 268 268 267 265 264 264 264 264 264 264 264 264 264 265 265 266 267 269 270 271 272 273 274 276 279 280 282 282 282 282 281 281 281 281 280 278
263 264 265 265 266 266 267 266 265 264 265 265 265 265 265 266 266 266 266 267 267 267 267 269 270 271 271 273 274 276 278 280 281 281 281 280 280 280 280 280 279 277
261 263 264 264 263 263 262 262 262 262 262 263 264 265 266 266 267 267 267 268 268 268 268 269 270 271 272 273 274 275 277 278 278 278 278 277 277 277 277 277 277 276
262 264 264 264 263 261 259 258 258 259 260 261 263 264 265 266 267 268 268 269 269 269 270 271 271 271 272 272 273 274 275 276 276 277 276 276 276 275 275 274 274 273
262 261 262 263 263 261 258 257 256 256 258 260 261 263 264 266 267 268 269 270 270 270 271 271 271 271 271 271 271 272 273 274 275 276 276 276 276 275 274 273 272 271
261 260 259 260 261 261 259 257 256 256 257 259 260 262 263 264 266 267 268 268 269 269 270 270 270 270 270 270 269 270 272 273 274 275 275 275 275 274 273 272 271 270
260 259 258 259 260 261 260 259 258 259 260 261 262 263 263 264 265 266 267 268 269 269 269 268 268 268 268 268 268 269 271 272 273 275 275 274 274 273 272 271 270 269
261 260 259 259 260 261 261 261 261 262 262 263 263 263 264 264 265 265 267 269 270 269 269 268 269 269 269 269 269 270 270 270 272 273 274 274 274 274 273 271 270 270
264 263 262 261 261 261 261 261 262 262 262 261 260 260 260 260 260 262 265 268 269 270 271 271 270 270 270 270 270 270 269 269 270 271 272 273 273 273 272 271 270 269
266 265 265 264 264 263 263 262 262 261 260 258 257 256 255 255 256 260 264 267 269 271 272 272 272 271 270 270 269 269 269 269 269 270 271 271 271 272 271 270 269 268
270 269 268 267 267 266 266 265 263 261 258 257 256 255 255 256 258 263 267 269 270 271 272 271 271 270 269 268 268 268 268 268 268 269 269 269 270 270 270 269 268 267
271 271 270 270 269 268 266 263 261 260 258 258 258 258 259 261 264 268 271 272 272 271 271 270 269 269 267 265 265 265 265 266 266 267 268 268 268 269 269 269 269 268
268 268 267 268 268 268 265 262 260 259 259 259 259 260 262 265 268 270 272 273 273 272 271 269 269 268 266 263 263 263 263 264 265 265 266 267 268 269 269 269 269 267
261 261 261 262 262 262 262 261 260 259 259 260 260 261 263 265 267 269 271 272 272 271 270 268 267 267 265 263 263 263 264 265 265 266 267 268 269 269 270 269 268 266
256 256 256 256 256 256 257 257 258 259 259 260 260 262 263 264 267 270 271 270 269 268 268 267 266 266 266 266 266 265 265 266 266 267 268 269 269 269 269 269 268 268
254 255 255 255 255 255 256 257 258 259 260 261 262 263 265 267 270 271 270 267 265 265 266 266 266 266 267 267 267 266 266 266 267 267 268 268 268 268 268 269 269 269
255 256 257 258 258 258 258 259 260 261 262 263 264 266 269 271 271 269 266 264 264 264 264 264 264 265 265 266 266 266 266 266 266 267 267 267 268 269 270 270 270 269
257 257 259 261 263 263 263 263 263 264 265 266 268 269 270 270 268 265 263 262 263 264 264 263 263 264 264 264 264 264 264 264 265 266 267 268 270 271 271 271 270 270
259 259 260 262 264 266 267 267 267 268 268 268 269 268 267 266 264 262 261 261 262 262 262 262 263 264 264 263 263 264 263 263 264 266 269 272 274 274 273 273 272 272
261 263 264 265 265 264 264 265 266 266 266 265 264 263 263 263 262 262 260 259 259 260 260 260 261 262 262 263 263 262 262 262 264 268 272 274 275 274 274 273 272 271
262 263 264 263 262 261 260 263 265 266 263 262 261 262 262 263 264 263 262 260 259 258 258 258 258 259 261 262 262 262 263 265 268 271 274 275 275 274 273 272 271 270
Height
5696 5697 5697 5697 5697 5697 5697 5698 5698 5698 5697 5697 5697 5696 5695 5695 5695 5695 5695 5695 5696 5696 5696 5696 5696 5696 5696 5696 5696 5696 5696 5696 5695 5695 5694 5694 5694 5694 5695 5695 5695 5695
5688 5689 5689 5689 5689 5689 5690 5690 5690 5690 5690 5689 5689 5689 5688 5688 5688 5688 5688 5688 5689 5689 5689 5689 5689 5689 5689 5689 5689 5689 5689 5688 5688 5687 5687 5687 5687 5687 5687 5687 5687 5687
5679 5680 5680 5680 5681 5681 5681 5682 5682 5682 5681 5681 5681 5681 5681 5681 5681 5681 5681 5682 5682 5682 5682 5682 5682 5682 5681 5681 5681 5681 5681 5681 5680 5680 5679 5679 5679 5679 5679 5679 5679 5679
5670 5670 5671 5671 5671 5672 5672 5673 5674 5673 5672 5672 5673 5672 5672 5673 5673 5674 5674 5674 5674 5675 5675 5675 5674 5674 5674 5674 5674 5674 5674 5674 5673 5673 5672 5672 5671 5671 5671 5671 5671 5671
5664 5663 5662 5662 5661 5662 5663 5664 5664 5663 5663 5663 5663 5663 5664 5665 5665 5665 5665 5666 5666 5666 5666 5667 5667 5666 5666 5666 5666 5666 5666 5666 5665 5665 5665 5664 5663 5663 5663 5663 5663 5663
5655 5655 5654 5654 5654 5653 5654 5655 5654 5654 5654 5654 5653 5654 5655 5656 5656 5657 5657 5657 5657 5658 5658 5659 5659 5659 5659 5659 5659 5658 5658 5657 5657 5656 5656 5656 5655 5655 5655 5655 5655 5655
5646 5646 5646 5646 5646 5646 5646 5646 5646 5645 5645 5644 5644 5645 5646 5646 5647 5648 5647 5647 5648 5649 5650 5651 5651 5651 5651 5651 5651 5650 5649 5649 5648 5648 5648 5647 5647 5647 5646 5646 5647 5647
5638 5638 5638 5638 5638 5638 5638 5638 5637 5637 5635 5635 5636 5636 5637 5637 5637 5638 5638 5638 5639 5641 5642 5642 5642 5642 5642 5642 5642 5642 5641 5640 5639 5639 5639 5639 5639 5639 5638 5638 5638 5639
5631 5630 5629 5629 5629 5629 5629 5629 5628 5627 5626 5626 5627 5627 5627 5628 5629 5629 5629 5629 5631 5632 5633 5633 5633 5633 5633 5634 5634 5633 5632 5631 5631 5631 5631 5631 5631 5631 5631 5630 5630 5631
5623 5621 5619 5619 5619 5619 5620 5620 5619 5619 5619 5619 5619 5619 5620 5620 5620 5620 5620 5621 5622 5623 5624 5624 5624 5624 5624 5625 5625 5624 5624 5623 5623 5623 5622 5623 5623 5623 5623 5623 5623 5623
5612 5611 5610 5610 5609 5609 5610 5610 5610 5611 5611 5611 5611 5611 5612 5612 5611 5612 5612 5612 5613 5614 5614 5614 5614 5614 5614 5615 5616 5615 5615 5615 5615 5614 5614 5614 5615 5615 5616 5616 5615 5614
5601 5601 5600 5600 5600 5600 5601 5600 5601 5602 5602 5602 5602 5602 5603 5603 5603 5603 5603 5604 5604 5604 5604 5604 5604 5604 5605 5606 5606 5606 5606 5606 5606 5606 5605 5605 5606 5606 5607 5607 5606 5605
5589 5590 5591 5592 5592 5592 5591 5591 5592 5592 5593 5593 5593 5593 5594 5594 5594 5594 5594 5594 5595 5594 5595 5595 5594 5594 5595 5596 5597 5597 5597 5597 5597 5596 5596 5596 5596 5597 5597 5597 5597 5595
5579 5579 5580 5581 5582 5582 5582 5582 5582 5582 5582 5582 5583 5584 5584 5584 5584 5584 5584 5584 5584 5585 5585 5585 5585 5585 5586 5586 5586 5586 5586 5586 5586 5586 5585 5586 5586 5586 5587 5587 5587 5585
5569 5568 5568 5569 5570 5571 5571 5571 5571 5571 5571 5571 5572 5573 5573 5573 5574 5574 5574 5574 5574 5574 5574 5574 5575 5576 5576 5576 5576 5575 5575 5574 5574 5575 5575 5575 5576 5576 5577 5577 5576 5575
5556 5556 5557 5557 5558 5560 5561 5561 5560 5561 5560 5560 5561 5561 5562 5563 5563 5564 5564 5564 5564 5564 5563 5564 5565 5566 5566 5565 5565 5564 5563 5563 5563 5564 5565 5565 5565 5566 5566 5566 5566 5565
5543 5544 5545 5545 5546 5547 5549 5550 5549 5550 5551 5551 5551 5551 5551 5551 5551 5552 5553 5553 5553 5553 5553 5554 5556 5556 5556 5555 5554 5554 5553 5553 5553 5554 5554 5555 5555 5556 5556 5556 5556 5555
5530 5532 5533 5533 5534 5535 5536 5537 5538 5539 5540 5541 5541 5541 5540 5539 5540 5541 5541 5541 5541 5542 5542 5544 5546 5546 5545 5544 5543 5543 5543 5542 5542 5543 5544 5544 5545 5546 5546 5546 5546 5545
5518 5520 5521 5521 5522 5523 5524 5525 5525 5526 5528 5528 5529 5529 5528 5529 5529 5529 5529 5530 5529 5530 5531 5533 5535 5535 5534 5533 5533 5532 5532 5531 5531 5532 5533 5534 5534 5535 5535 5535 5535 5534
5506 5507 5508 5509 5510 5511 5511 5512 5512 5513 5514 5515 5516 5516 5517 5518 5518 5517 5518 5518 5518 5518 5519 5521 5523 5523 5523 5522 5522 5522 5521 5520 5520 5521 5522 5523 5524 5524 5524 5525 5525 5524
5493 5495 5496 5496 5497 5498 5498 5499 5499 5500 5501 5502 5503 5504 5505 5506 5506 5506 5506 5506 5506 5507 5508 5510 5511 5511 5511 5511 5511 5510 5510 5509 5509 5510 5512 5512 5513 5514 5514 5515 5515 5515
5481 5482 5483 5484 5484 5485 5486 5486 5487 5488 5488 5488 5490 5491 5492 5493 5494 5494 5494 5494 5495 5495 5497 5498 5499 5499 5499 5500 5499 5499 5499 5498 5499 5500 5501 5502 5502 5503 5504 5505 5505 5505
5466 5467 5469 5470 5471 5472 5473 5474 5475 5475 5476 5476 5477 5478 5479 5480 5481 5481 5482 5482 5483 5484 5485 5486 5487 5487 5488 5488 5488 5488 5487 5488 5489 5489 5490 5491 5492 5492 5493 5494 5495 5495
5448 5449 5452 5454 5456 5457 5459 5460 5462 5462 5463 5464 5464 5465 5466 5466 5467 5468 5469 5471 5471 5472 5473 5473 5475 5476 5476 5476 5477 5477 5476 5478 5479 5479 5479 5480 5481 5482 5483 5484 5485 5485
5432 5433 5435 5437 5440 5442 5444 5446 5448 5449 5450 5451 5451 5451 5452 5453 5454 5455 5457 5458 5459 5460 5461 5461 5463 5465 5465 5465 5466 5465 5465 5468 5469 5468 5469 5470 5470 5470 5471 5473 5474 5475
5418 5418 5420 5422 5424 5426 5429 5431 5433 5435 5437 5438 5438 5439 5440 5441 5441 5443 5444 5446 5446 5448 5449 5449 5451 5453 5453 5453 5454 5453 5454 5458 5459 5458 5458 5459 5459 5460 5461 5462 5463 5464